JAL376 RJFR-RJTT

Flight info

Callsign JAL376
Flight time 1h 21m
Altitude 37000
Route FIATO Y61 KTE Y33 SHOOT Y71 XAC
Aircraft B738/M-SDE2E3FGHIRWXY/LB1

Departure

Time 2026-04-20 06:37
Airport Kitakyushu Airport (RJFR)

Arrival

Time 2026-04-20 07:58
Airport Tokyo Haneda International Airport (RJTT)
Time Latitude Longitude Altitude Speed Heading
2026-04-20 06:31 33.83989 131.03422 29 ft 0 kts 171°
2026-04-20 06:33 33.83974 131.03425 29 ft 5 kts 171°
2026-04-20 06:34 33.83928 131.03434 29 ft 8 kts 170°
2026-04-20 06:34 33.83866 131.03447 29 ft 11 kts 170°
2026-04-20 06:34 33.83648 131.03491 29 ft 18 kts 171°
2026-04-20 06:35 33.83529 131.03515 29 ft 17 kts 170°
2026-04-20 06:35 33.83456 131.03560 29 ft 7 kts 119°
2026-04-20 06:35 33.83453 131.03619 30 ft 6 kts 82°
2026-04-20 06:35 33.83454 131.03625 30 ft 0 kts 80°
2026-04-20 06:36 33.83454 131.03626 30 ft 1 kts 80°
2026-04-20 06:36 33.83460 131.03662 30 ft 8 kts 80°
2026-04-20 06:36 33.83505 131.03721 32 ft 13 kts 357°
2026-04-20 06:36 33.83646 131.03693 29 ft 37 kts 351°
2026-04-20 06:37 33.84158 131.03588 27 ft 110 kts 350°
2026-04-20 06:37 33.85117 131.03383 72 ft 164 kts 351°
2026-04-20 06:37 33.86252 131.03138 760 ft 166 kts 352°
2026-04-20 06:37 33.87367 131.03366 1483 ft 171 kts 37°
2026-04-20 06:38 33.87949 131.04634 2057 ft 192 kts 86°
2026-04-20 06:38 33.87782 131.06356 2354 ft 222 kts 99°
2026-04-20 06:38 33.87536 131.08312 2577 ft 251 kts 98°
2026-04-20 06:38 33.87294 131.10481 3098 ft 268 kts 98°
2026-04-20 06:39 33.87074 131.12729 3986 ft 273 kts 97°
2026-04-20 06:39 33.86874 131.15011 4951 ft 276 kts 97°
2026-04-20 06:39 33.86690 131.17330 5831 ft 281 kts 97°
2026-04-20 06:39 33.86514 131.19686 6653 ft 286 kts 97°
2026-04-20 06:40 33.86343 131.22091 7460 ft 290 kts 97°
2026-04-20 06:40 33.86177 131.24489 8269 ft 294 kts 97°
2026-04-20 06:40 33.86008 131.26969 9082 ft 299 kts 97°
2026-04-20 06:40 33.85839 131.29480 9886 ft 304 kts 97°
2026-04-20 06:41 33.85665 131.32054 10425 ft 318 kts 96°
2026-04-20 06:41 33.85478 131.34817 10594 ft 344 kts 96°
2026-04-20 06:41 33.85279 131.37768 10946 ft 362 kts 96°
2026-04-20 06:41 33.85063 131.40831 11544 ft 371 kts 98°
2026-04-20 06:42 33.84337 131.43803 12191 ft 373 kts 120°
2026-04-20 06:42 33.82895 131.46403 12877 ft 376 kts 128°
2026-04-20 06:42 33.81323 131.48953 13491 ft 383 kts 129°
2026-04-20 06:42 33.79712 131.51548 14054 ft 390 kts 128°
2026-04-20 06:43 33.78095 131.54192 14649 ft 394 kts 128°
2026-04-20 06:43 33.76478 131.56869 15270 ft 398 kts 128°
2026-04-20 06:43 33.74851 131.59576 15909 ft 401 kts 127°
2026-04-20 06:43 33.73477 131.62527 16433 ft 411 kts 109°
2026-04-20 06:44 33.72833 131.65883 17010 ft 415 kts 101°
2026-04-20 06:44 33.72458 131.68143 17385 ft 418 kts 101°
2026-04-20 06:44 33.71876 131.71590 17924 ft 424 kts 102°
2026-04-20 06:44 33.71270 131.75078 18424 ft 429 kts 102°
2026-04-20 06:45 33.70643 131.78600 18917 ft 433 kts 102°
2026-04-20 06:45 33.70002 131.82148 19428 ft 437 kts 102°
2026-04-20 06:45 33.69352 131.85719 19947 ft 440 kts 102°
2026-04-20 06:45 33.68695 131.89324 20454 ft 444 kts 102°
2026-04-20 06:46 33.68032 131.92958 20944 ft 448 kts 102°
2026-04-20 06:46 33.67369 131.96630 21426 ft 452 kts 100°
2026-04-20 06:46 33.67236 132.00396 21856 ft 454 kts 81°
2026-04-20 06:46 33.68032 132.04026 22393 ft 449 kts 63°
2026-04-20 06:47 33.69323 132.07441 22888 ft 450 kts 61°
2026-04-20 06:47 33.70680 132.10846 23301 ft 455 kts 60°
2026-04-20 06:47 33.72063 132.14288 23692 ft 459 kts 60°
2026-04-20 06:47 33.73444 132.17761 24094 ft 462 kts 61°
2026-04-20 06:48 33.74817 132.21261 24487 ft 465 kts 61°
2026-04-20 06:48 33.76183 132.24789 24933 ft 466 kts 61°
2026-04-20 06:48 33.77544 132.28330 25347 ft 468 kts 61°
2026-04-20 06:48 33.78907 132.31894 25703 ft 471 kts 61°
2026-04-20 06:49 33.80279 132.35483 26072 ft 474 kts 61°
2026-04-20 06:49 33.81658 132.39097 26443 ft 477 kts 61°
2026-04-20 06:49 33.83045 132.42734 26803 ft 479 kts 61°
2026-04-20 06:49 33.84415 132.46330 27258 ft 479 kts 61°
2026-04-20 06:50 33.85803 132.49975 27628 ft 481 kts 61°
2026-04-20 06:50 33.87200 132.53645 27941 ft 484 kts 61°
2026-04-20 06:50 33.88605 132.57339 28246 ft 487 kts 61°
2026-04-20 06:50 33.90017 132.61058 28582 ft 489 kts 61°
2026-04-20 06:51 33.91432 132.64790 28981 ft 490 kts 61°
2026-04-20 06:51 33.92831 132.68537 29362 ft 492 kts 64°
2026-04-20 06:51 33.93919 132.72474 29660 ft 499 kts 71°
2026-04-20 06:51 33.94772 132.76538 29947 ft 502 kts 73°
2026-04-20 06:52 33.95565 132.80649 30198 ft 505 kts 73°
2026-04-20 06:52 33.96369 132.84768 30457 ft 507 kts 73°
2026-04-20 06:52 33.97212 132.88898 30734 ft 508 kts 72°
2026-04-20 06:52 33.98086 132.93016 31040 ft 508 kts 72°
2026-04-20 06:53 33.98978 132.97137 31340 ft 508 kts 72°
2026-04-20 06:53 33.99871 133.01251 31694 ft 507 kts 72°
2026-04-20 06:53 34.00756 133.05352 32081 ft 505 kts 71°
2026-04-20 06:53 34.01634 133.09439 32474 ft 503 kts 71°
2026-04-20 06:54 34.02511 133.13512 32814 ft 502 kts 71°
2026-04-20 06:54 34.03389 133.17582 33110 ft 502 kts 71°
2026-04-20 06:54 34.04265 133.21652 33425 ft 501 kts 71°
2026-04-20 06:54 34.05140 133.25722 33729 ft 501 kts 71°
2026-04-20 06:55 34.06008 133.29775 34111 ft 497 kts 71°
2026-04-20 06:55 34.06857 133.33751 34443 ft 495 kts 71°
2026-04-20 06:55 34.07726 133.37819 34705 ft 494 kts 71°
2026-04-20 06:55 34.08572 133.41782 34932 ft 495 kts 71°
2026-04-20 06:56 34.09427 133.45798 35193 ft 494 kts 71°
2026-04-20 06:56 34.10275 133.49792 35540 ft 490 kts 71°
2026-04-20 06:56 34.11121 133.53777 35803 ft 490 kts 71°
2026-04-20 06:56 34.11968 133.57760 35970 ft 491 kts 71°
2026-04-20 06:57 34.12816 133.61756 36159 ft 491 kts 71°
2026-04-20 06:57 34.13659 133.65740 36521 ft 486 kts 71°
2026-04-20 06:57 34.14485 133.69663 37058 ft 479 kts 71°
2026-04-20 06:57 34.15304 133.73548 37339 ft 478 kts 71°
2026-04-20 06:58 34.16127 133.77442 37471 ft 479 kts 71°
2026-04-20 06:58 34.16948 133.81343 37589 ft 481 kts 71°
2026-04-20 06:58 34.17760 133.85264 37793 ft 481 kts 71°
2026-04-20 06:58 34.18552 133.89176 38045 ft 479 kts 72°
2026-04-20 06:59 34.19339 133.93085 38272 ft 478 kts 72°
2026-04-20 06:59 34.20127 133.96988 38464 ft 478 kts 72°
2026-04-20 06:59 34.20914 134.00886 38635 ft 477 kts 72°
2026-04-20 06:59 34.21701 134.04777 38737 ft 478 kts 73°
2026-04-20 07:00 34.22490 134.08675 38862 ft 479 kts 72°
2026-04-20 07:00 34.24075 134.16524 38916 ft 483 kts 72°
2026-04-20 07:01 34.25662 134.24413 38929 ft 483 kts 73°
2026-04-20 07:01 34.27246 134.32322 38933 ft 485 kts 73°
2026-04-20 07:02 34.28826 134.40243 38949 ft 485 kts 72°
2026-04-20 07:02 34.30404 134.48176 38935 ft 485 kts 73°
2026-04-20 07:03 34.31975 134.56105 38935 ft 484 kts 73°
2026-04-20 07:03 34.33537 134.64021 38941 ft 483 kts 73°
2026-04-20 07:04 34.35090 134.71916 38943 ft 482 kts 73°
2026-04-20 07:04 34.36637 134.79804 38936 ft 481 kts 73°
2026-04-20 07:05 34.38174 134.87677 38932 ft 480 kts 73°
2026-04-20 07:05 34.39536 134.95589 38944 ft 480 kts 76°
2026-04-20 07:06 34.40786 135.03534 38943 ft 480 kts 76°
2026-04-20 07:06 34.42047 135.11470 38941 ft 480 kts 76°
2026-04-20 07:07 34.43317 135.19344 38934 ft 480 kts 75°
2026-04-20 07:07 34.44597 135.27276 38940 ft 481 kts 75°
2026-04-20 07:08 34.45876 135.35238 38946 ft 482 kts 76°
2026-04-20 07:08 34.47154 135.43237 38921 ft 485 kts 76°
2026-04-20 07:09 34.48432 135.51275 38921 ft 487 kts 76°
2026-04-20 07:09 34.49710 135.59347 38929 ft 488 kts 76°
2026-04-20 07:10 34.50988 135.67453 38927 ft 491 kts 76°
2026-04-20 07:10 34.52262 135.75599 38923 ft 492 kts 76°
2026-04-20 07:11 34.53529 135.83762 38928 ft 493 kts 76°
2026-04-20 07:11 34.54793 135.91939 38947 ft 493 kts 76°
2026-04-20 07:12 34.56042 136.00056 38955 ft 493 kts 76°
2026-04-20 07:12 34.57293 136.08218 38967 ft 491 kts 76°
2026-04-20 07:13 34.58536 136.16359 38968 ft 490 kts 76°
2026-04-20 07:13 34.59779 136.24493 38968 ft 490 kts 76°
2026-04-20 07:14 34.61022 136.32602 38974 ft 488 kts 76°
2026-04-20 07:14 34.62258 136.40701 38978 ft 488 kts 76°
2026-04-20 07:15 34.63487 136.48803 38984 ft 488 kts 76°
2026-04-20 07:15 34.64714 136.56929 38996 ft 490 kts 76°
2026-04-20 07:16 34.65942 136.65104 38993 ft 494 kts 77°
2026-04-20 07:16 34.67174 136.73341 38983 ft 497 kts 77°
2026-04-20 07:17 34.68405 136.81620 38989 ft 500 kts 77°
2026-04-20 07:17 34.69640 136.89956 38992 ft 502 kts 77°
2026-04-20 07:18 34.70675 136.98354 38993 ft 505 kts 86°
2026-04-20 07:18 34.70785 137.06847 38972 ft 499 kts 89°
2026-04-20 07:19 34.70774 137.15221 38985 ft 494 kts 89°
2026-04-20 07:19 34.70817 137.23565 38994 ft 493 kts 88°
2026-04-20 07:20 34.70898 137.31887 38999 ft 493 kts 88°
2026-04-20 07:20 34.70983 137.40218 39010 ft 493 kts 88°
2026-04-20 07:21 34.71059 137.48510 39008 ft 495 kts 88°
2026-04-20 07:21 34.71127 137.56874 39011 ft 496 kts 88°
2026-04-20 07:22 34.71189 137.65287 39015 ft 498 kts 89°
2026-04-20 07:22 34.71246 137.73707 39018 ft 499 kts 89°
2026-04-20 07:23 34.71297 137.82148 39028 ft 498 kts 89°
2026-04-20 07:23 34.71342 137.90451 39015 ft 484 kts 89°
2026-04-20 07:24 34.71381 137.98599 39018 ft 481 kts 89°
2026-04-20 07:24 34.71417 138.06712 39027 ft 480 kts 90°
2026-04-20 07:25 34.71458 138.14818 39026 ft 480 kts 89°
2026-04-20 07:25 34.71496 138.22948 39027 ft 481 kts 90°
2026-04-20 07:26 34.71528 138.31104 39027 ft 484 kts 90°
2026-04-20 07:26 34.71554 138.39329 39017 ft 488 kts 90°
2026-04-20 07:27 34.71574 138.47589 39038 ft 490 kts 91°
2026-04-20 07:27 34.71589 138.55882 39042 ft 492 kts 91°
2026-04-20 07:28 34.71598 138.64208 39045 ft 493 kts 91°
2026-04-20 07:28 34.71602 138.72560 39049 ft 494 kts 91°
2026-04-20 07:29 34.71600 138.80865 39047 ft 488 kts 91°
2026-04-20 07:29 34.71566 138.89089 39009 ft 486 kts 92°
2026-04-20 07:29 34.71540 138.93242 38498 ft 499 kts 92°
2026-04-20 07:30 34.71514 138.97494 37674 ft 504 kts 91°
2026-04-20 07:30 34.71490 139.01767 36918 ft 507 kts 90°
2026-04-20 07:30 34.71466 139.06052 36177 ft 509 kts 90°
2026-04-20 07:30 34.71442 139.10356 35468 ft 509 kts 90°
2026-04-20 07:31 34.71418 139.14662 34764 ft 509 kts 89°
2026-04-20 07:31 34.71391 139.18925 34032 ft 501 kts 89°
2026-04-20 07:31 34.71363 139.23147 33094 ft 497 kts 89°
2026-04-20 07:31 34.71334 139.27322 32194 ft 492 kts 89°
2026-04-20 07:32 34.71304 139.31457 31324 ft 487 kts 89°
2026-04-20 07:32 34.71284 139.34174 30753 ft 483 kts 90°
2026-04-20 07:32 34.71260 139.38234 29894 ft 478 kts 88°
2026-04-20 07:32 34.71725 139.42201 28887 ft 472 kts 71°
2026-04-20 07:33 34.73050 139.45792 27991 ft 462 kts 59°
2026-04-20 07:33 34.74642 139.49159 27122 ft 457 kts 58°
2026-04-20 07:33 34.76240 139.52485 26224 ft 453 kts 58°
2026-04-20 07:33 34.77804 139.55790 25385 ft 448 kts 59°
2026-04-20 07:34 34.79320 139.59063 24682 ft 440 kts 59°
2026-04-20 07:34 34.80794 139.62288 23992 ft 433 kts 59°
2026-04-20 07:34 34.82242 139.65468 23255 ft 426 kts 59°
2026-04-20 07:35 34.86226 139.70432 21683 ft 405 kts 25°
2026-04-20 07:35 34.88811 139.71680 20949 ft 396 kts 15°
2026-04-20 07:35 34.91428 139.72671 20207 ft 392 kts 15°
2026-04-20 07:35 34.94013 139.73666 19488 ft 388 kts 15°
2026-04-20 07:36 34.96568 139.74684 18795 ft 385 kts 16°
2026-04-20 07:36 34.98997 139.76016 18032 ft 385 kts 34°
2026-04-20 07:36 35.00978 139.78203 17295 ft 385 kts 45°
2026-04-20 07:36 35.02874 139.80549 16518 ft 391 kts 45°
2026-04-20 07:37 35.04810 139.82905 15785 ft 395 kts 45°
2026-04-20 07:37 35.06778 139.85261 15026 ft 399 kts 45°
2026-04-20 07:37 35.08779 139.87643 14190 ft 404 kts 45°
2026-04-20 07:37 35.10798 139.90046 13316 ft 408 kts 45°
2026-04-20 07:38 35.12839 139.92479 12418 ft 411 kts 45°
2026-04-20 07:38 35.14880 139.94919 11539 ft 407 kts 45°
2026-04-20 07:38 35.16864 139.97292 10943 ft 390 kts 46°
2026-04-20 07:38 35.18740 139.99536 10712 ft 366 kts 46°
2026-04-20 07:39 35.20511 140.01656 10456 ft 347 kts 46°
2026-04-20 07:39 35.22194 140.03676 10199 ft 331 kts 47°
2026-04-20 07:39 35.23800 140.05605 9943 ft 317 kts 47°
2026-04-20 07:39 35.25317 140.07429 9687 ft 306 kts 47°
2026-04-20 07:40 35.26823 140.09244 9421 ft 302 kts 47°
2026-04-20 07:40 35.28310 140.11035 9166 ft 298 kts 47°
2026-04-20 07:40 35.29784 140.12812 9065 ft 299 kts 47°
2026-04-20 07:40 35.31266 140.14600 9051 ft 299 kts 47°
2026-04-20 07:41 35.32741 140.16377 9024 ft 296 kts 47°
2026-04-20 07:41 35.34206 140.18144 9026 ft 296 kts 47°
2026-04-20 07:41 35.35679 140.19921 9030 ft 298 kts 47°
2026-04-20 07:41 35.37268 140.21536 9007 ft 300 kts 29°
2026-04-20 07:42 35.39270 140.22252 8953 ft 303 kts
2026-04-20 07:42 35.41379 140.22433 8847 ft 304 kts
2026-04-20 07:42 35.43492 140.22554 8731 ft 303 kts
2026-04-20 07:42 35.45594 140.22673 8615 ft 302 kts
2026-04-20 07:43 35.47689 140.22802 8504 ft 301 kts
2026-04-20 07:43 35.49774 140.22940 8398 ft 299 kts
2026-04-20 07:43 35.51845 140.23084 8304 ft 298 kts
2026-04-20 07:43 35.53910 140.23232 8196 ft 297 kts
2026-04-20 07:44 35.55970 140.23381 8097 ft 297 kts
2026-04-20 07:44 35.58036 140.23531 7998 ft 297 kts
2026-04-20 07:44 35.60102 140.23530 7871 ft 299 kts 349°
2026-04-20 07:44 35.62069 140.22742 7797 ft 297 kts 339°
2026-04-20 07:45 35.64012 140.21848 7697 ft 299 kts 339°
2026-04-20 07:45 35.65970 140.20977 7594 ft 300 kts 339°
2026-04-20 07:45 35.67939 140.20114 7476 ft 301 kts 339°
2026-04-20 07:45 35.69778 140.18929 7348 ft 299 kts 315°
2026-04-20 07:46 35.70995 140.16916 7284 ft 292 kts 293°
2026-04-20 07:46 35.71742 140.14616 7191 ft 289 kts 285°
2026-04-20 07:46 35.72367 140.12263 7089 ft 289 kts 284°
2026-04-20 07:46 35.72991 140.09912 6980 ft 289 kts 285°
2026-04-20 07:47 35.73631 140.07569 6868 ft 288 kts 285°
2026-04-20 07:47 35.74280 140.05244 6780 ft 287 kts 286°
2026-04-20 07:47 35.74931 140.02924 6680 ft 286 kts 286°
2026-04-20 07:47 35.75580 140.00615 6582 ft 285 kts 286°
2026-04-20 07:48 35.76228 139.98309 6472 ft 284 kts 286°
2026-04-20 07:48 35.76873 139.96015 6380 ft 283 kts 286°
2026-04-20 07:48 35.77516 139.93726 6287 ft 283 kts 286°
2026-04-20 07:48 35.78157 139.91443 6180 ft 282 kts 285°
2026-04-20 07:49 35.78789 139.89188 6072 ft 282 kts 286°
2026-04-20 07:49 35.79425 139.86919 6034 ft 279 kts 285°
2026-04-20 07:49 35.80060 139.84647 5694 ft 283 kts 286°
2026-04-20 07:49 35.80696 139.82374 5467 ft 279 kts 287°
2026-04-20 07:50 35.81272 139.80116 5207 ft 274 kts 279°
2026-04-20 07:50 35.81609 139.77831 4971 ft 269 kts 276°
2026-04-20 07:50 35.81898 139.75585 4735 ft 263 kts 276°
2026-04-20 07:50 35.82178 139.73399 4489 ft 252 kts 272°
2026-04-20 07:51 35.82241 139.71292 4266 ft 241 kts 265°
2026-04-20 07:51 35.82215 139.69264 4102 ft 235 kts 265°
2026-04-20 07:51 35.82177 139.67247 4048 ft 238 kts 263°
2026-04-20 07:51 35.81777 139.65339 4013 ft 226 kts 232°
2026-04-20 07:52 35.80674 139.64065 4008 ft 214 kts 205°
2026-04-20 07:52 35.79293 139.63518 4015 ft 207 kts 185°
2026-04-20 07:52 35.77865 139.63660 4007 ft 208 kts 159°
2026-04-20 07:52 35.76594 139.64477 4007 ft 205 kts 153°
2026-04-20 07:53 35.75353 139.65312 3993 ft 200 kts 153°
2026-04-20 07:53 35.74157 139.66142 3937 ft 194 kts 152°
2026-04-20 07:53 35.72997 139.66962 3716 ft 191 kts 151°
2026-04-20 07:53 35.71860 139.67771 3485 ft 187 kts 152°
2026-04-20 07:54 35.70745 139.68565 3240 ft 183 kts 152°
2026-04-20 07:54 35.69654 139.69343 3033 ft 179 kts 152°
2026-04-20 07:54 35.68586 139.70103 2776 ft 176 kts 152°
2026-04-20 07:54 35.67535 139.70853 2548 ft 173 kts 152°
2026-04-20 07:55 35.66505 139.71587 2315 ft 169 kts 152°
2026-04-20 07:55 35.65506 139.72299 2084 ft 161 kts 153°
2026-04-20 07:55 35.64575 139.72963 1895 ft 150 kts 152°
2026-04-20 07:55 35.63685 139.73596 1699 ft 147 kts 152°
2026-04-20 07:56 35.62806 139.74223 1537 ft 143 kts 153°
2026-04-20 07:56 35.61948 139.74834 1308 ft 141 kts 151°
2026-04-20 07:56 35.61111 139.75431 1104 ft 138 kts 150°
2026-04-20 07:56 35.60286 139.76018 941 ft 136 kts 150°
2026-04-20 07:57 35.59459 139.76607 775 ft 136 kts 149°
2026-04-20 07:57 35.58639 139.77193 581 ft 139 kts 150°
2026-04-20 07:57 35.57777 139.77807 408 ft 146 kts 150°
2026-04-20 07:57 35.56900 139.78424 187 ft 143 kts 151°
2026-04-20 07:58 35.56071 139.79033 28 ft 131 kts 153°
2026-04-20 07:58 35.55373 139.79518 24 ft 94 kts 150°
2026-04-20 07:58 35.55015 139.79733 24 ft 37 kts 170°
2026-04-20 07:58 35.54891 139.79749 23 ft 8 kts 178°
2026-04-20 07:59 35.54847 139.79716 23 ft 8 kts 235°
2026-04-20 07:59 35.54822 139.79667 22 ft 0 kts 240°
2026-04-20 08:00 35.54819 139.79661 22 ft 2 kts 239°
2026-04-20 08:01 35.54808 139.79638 23 ft 4 kts 240°
2026-04-20 08:01 35.54777 139.79574 24 ft 12 kts 239°
2026-04-20 08:01 35.54732 139.79479 23 ft 13 kts 240°
2026-04-20 08:01 35.54688 139.79388 27 ft 12 kts 239°
2026-04-20 08:02 35.54645 139.79298 23 ft 12 kts 242°
2026-04-20 08:02 35.54603 139.79209 24 ft 12 kts 240°
2026-04-20 08:02 35.54556 139.79109 24 ft 18 kts 240°
2026-04-20 08:02 35.54491 139.78973 25 ft 18 kts 240°
2026-04-20 08:03 35.54429 139.78840 26 ft 18 kts 239°
2026-04-20 08:03 35.54368 139.78713 24 ft 17 kts 239°
2026-04-20 08:03 35.54309 139.78590 24 ft 16 kts 238°
2026-04-20 08:03 35.54331 139.78473 25 ft 16 kts 328°
2026-04-20 08:04 35.54423 139.78406 25 ft 15 kts 329°
2026-04-20 08:04 35.54512 139.78342 25 ft 15 kts 331°
2026-04-20 08:04 35.54598 139.78282 24 ft 14 kts 329°
2026-04-20 08:04 35.54680 139.78224 27 ft 13 kts 329°
2026-04-20 08:05 35.54746 139.78207 26 ft 7 kts 43°
2026-04-20 08:05 35.54766 139.78238 23 ft 2 kts 53°
2026-04-20 08:05 35.54775 139.78252 23 ft 2 kts 53°
2026-04-20 08:05 35.54779 139.78260 23 ft 0 kts 53°